This is the latest recevied weather packets stored in our database for station/object KE8AFF-13. If no packets are shown the sender has not sent any weather packets the latest 10 day(s).
| Time | Temp. | Humidity | Pressure | Rain* | Wind** | Luminosity | Snow |
|---|---|---|---|---|---|---|---|
| 1778165617 | 10.56° C | 59% | 1014.2 hPa | 0 mm | - | 769 W/m² | - |
| 1778165315 | 10.56° C | 60% | 1014.2 hPa | 0 mm | - | 766 W/m² | - |
| 1778165011 | 10.56° C | 60% | 1014.2 hPa | 0 mm | - | 737 W/m² | - |
| 1778164708 | 10.56° C | 61% | 1014 hPa | 0 mm | - | 726 W/m² | - |
| 1778164405 | 10.56° C | 59% | 1014.3 hPa | 0 mm | - | 698 W/m² | - |
| 1778164101 | 10° C | 57% | 1014.3 hPa | 0 mm | - | 696 W/m² | - |
| 1778163798 | 10° C | 58% | 1014.3 hPa | 0 mm | - | 656 W/m² | - |
| 1778163495 | 9.44° C | 61% | 1014.5 hPa | 0 mm | - | 648 W/m² | - |
| 1778163192 | 9.44° C | 61% | 1014.4 hPa | 0 mm | - | 634 W/m² | - |
| 1778162888 | 9.44° C | 62% | 1014.5 hPa | 0 mm | - | 642 W/m² | - |
| 1778162585 | 9.44° C | 64% | 1014.3 hPa | 0 mm | - | 609 W/m² | - |
| 1778162283 | 9.44° C | 65% | 1014.4 hPa | 0 mm | - | 599 W/m² | - |
| 1778161980 | 9.44° C | 66% | 1014.4 hPa | 0 mm | - | 603 W/m² | - |
| 1778161676 | 8.89° C | 67% | 1014.5 hPa | 0 mm | - | 573 W/m² | - |
| 1778161373 | 8.89° C | 68% | 1014.5 hPa | 0 mm | - | 554 W/m² | - |
| 1778161068 | 8.89° C | 69% | 1014.7 hPa | 0 mm | - | 528 W/m² | - |
| 1778160765 | 8.89° C | 69% | 1014.7 hPa | 0 mm | - | 466 W/m² | - |
| 1778160463 | 7.78° C | 69% | 1014.7 hPa | 0 mm | - | 432 W/m² | - |
| 1778160159 | 7.78° C | 70% | 1014.9 hPa | 0 mm | - | 410 W/m² | - |
| 1778159856 | 7.78° C | 71% | 1014.9 hPa | 0 mm | - | 391 W/m² | - |
| 1778159553 | 8.33° C | 71% | 1014.5 hPa | 0 mm | - | 299 W/m² | - |
| 1778159250 | 7.78° C | 72% | 1014.8 hPa | 0 mm | - | 305 W/m² | - |
| 1778158948 | 7.22° C | 72% | 1014.8 hPa | 0 mm | - | 222 W/m² | - |
| 1778158646 | 7.22° C | 71% | 1014.8 hPa | 0 mm | - | 184 W/m² | - |
| 1778158343 | 7.78° C | 72% | 1014.8 hPa | 0 mm | - | 226 W/m² | - |
* Rain latest hour (hover to see other rain measurements)
** Current wind speed in m/s (hover to see current wind gust speed)